Time,TemperatureF,DewpointF,PressureIn,WindDirection,WindDirectionDegrees,WindSpeedMPH,WindSpeedGustMPH,Humidity,HourlyPrecipIn,Conditions,Clouds,dailyrainin,SoftwareType,DateUTC
2013-04-03 00:00:00,32.2,14.7,30.02,WSW,249,1.0,4.0,48,0.00,,,0.00,meteohub,2013-04-03 04:00:00,
2013-04-03 00:02:00,32.2,14.2,30.01,SW,236,2.0,3.0,47,0.00,,,0.00,meteohub,2013-04-03 04:02:00,
2013-04-03 00:07:00,32.4,13.5,30.02,WSW,244,2.0,4.0,45,0.00,,,0.00,meteohub,2013-04-03 04:07:00,
2013-04-03 00:12:00,32.4,13.5,30.02,SW,235,3.0,5.0,45,0.00,,,0.00,meteohub,2013-04-03 04:12:00,
2013-04-03 00:17:00,32.4,13.5,30.02,West,267,2.0,5.0,45,0.00,,,0.00,meteohub,2013-04-03 04:17:00,
2013-04-03 00:22:00,32.5,13.1,30.02,WSW,252,3.0,5.0,44,0.00,,,0.00,meteohub,2013-04-03 04:22:00,
2013-04-03 00:27:00,32.5,13.1,30.02,West,264,1.0,7.0,44,0.00,,,0.00,meteohub,2013-04-03 04:27:00,
2013-04-03 00:32:00,32.5,13.1,30.02,SW,218,2.0,7.0,44,0.00,,,0.00,meteohub,2013-04-03 04:32:00,
2013-04-03 00:37:00,32.7,13.3,30.02,West,269,4.0,8.0,44,0.00,,,0.00,meteohub,2013-04-03 04:37:00,
2013-04-03 00:42:00,32.9,13.5,30.02,West,274,0.0,8.0,44,0.00,,,0.00,meteohub,2013-04-03 04:42:00,
2013-04-03 00:47:00,32.9,12.9,30.02,West,274,3.0,8.0,43,0.00,,,0.00,meteohub,2013-04-03 04:47:00,
2013-04-03 00:52:00,33.1,13.1,30.02,West,270,4.0,8.0,43,0.00,,,0.00,meteohub,2013-04-03 04:52:00,
2013-04-03 00:57:00,33.1,13.1,30.02,WSW,255,3.0,8.0,43,0.00,,,0.00,meteohub,2013-04-03 04:57:00,
2013-04-03 01:02:00,33.3,13.1,30.03,West,260,3.0,8.0,43,0.00,,,0.00,meteohub,2013-04-03 05:02:00,
2013-04-03 01:07:00,33.3,12.6,30.02,WSW,256,2.0,9.0,42,0.00,,,0.00,meteohub,2013-04-03 05:07:00,
2013-04-03 01:12:00,33.4,12.7,30.02,West,271,2.0,9.0,42,0.00,,,0.00,meteohub,2013-04-03 05:12:00,
2013-04-03 01:18:00,33.4,12.7,30.02,SW,229,3.0,9.0,42,0.00,,,0.00,meteohub,2013-04-03 05:18:00,
2013-04-03 01:23:00,33.3,12.6,30.02,WSW,255,3.0,9.0,42,0.00,,,0.00,meteohub,2013-04-03 05:23:00,
2013-04-03 01:28:00,33.3,12.6,30.02,WSW,252,5.0,10.0,42,0.00,,,0.00,meteohub,2013-04-03 05:28:00,
2013-04-03 01:33:00,33.1,13.1,30.02,WSW,243,7.0,10.0,43,0.00,,,0.00,meteohub,2013-04-03 05:33:00,
2013-04-03 01:38:00,33.1,12.6,30.02,WSW,249,5.0,10.0,42,0.00,,,0.00,meteohub,2013-04-03 05:38:00,
2013-04-03 01:43:00,33.3,13.1,30.02,WSW,253,5.0,10.0,43,0.00,,,0.00,meteohub,2013-04-03 05:43:00,
2013-04-03 01:48:00,33.3,13.1,30.02,SSW,210,4.0,10.0,43,0.00,,,0.00,meteohub,2013-04-03 05:48:00,
2013-04-03 01:53:00,33.3,13.1,30.02,West,263,8.0,10.0,43,0.00,,,0.00,meteohub,2013-04-03 05:53:00,
2013-04-03 01:58:00,33.3,13.1,30.02,West,273,7.0,10.0,43,0.00,,,0.00,meteohub,2013-04-03 05:58:00,
2013-04-03 02:03:00,33.6,12.9,30.02,NNW,342,9.0,16.0,42,0.00,,,0.00,meteohub,2013-04-03 06:03:00,
2013-04-03 02:08:00,33.6,13.5,30.02,WSW,252,8.0,16.0,43,0.00,,,0.00,meteohub,2013-04-03 06:08:00,
2013-04-03 02:13:00,33.4,12.7,30.02,West,262,4.0,14.0,42,0.00,,,0.00,meteohub,2013-04-03 06:13:00,
2013-04-03 02:18:00,33.4,13.3,30.02,West,276,5.0,14.0,43,0.00,,,0.00,meteohub,2013-04-03 06:18:00,
2013-04-03 02:23:00,33.3,13.1,30.02,WNW,284,3.0,12.0,43,0.00,,,0.00,meteohub,2013-04-03 06:23:00,
2013-04-03 02:28:00,33.1,13.1,30.02,WSW,238,4.0,12.0,43,0.00,,,0.00,meteohub,2013-04-03 06:28:00,
2013-04-03 02:33:00,32.9,13.5,30.02,WNW,288,4.0,10.0,44,0.00,,,0.00,meteohub,2013-04-03 06:33:00,
2013-04-03 02:38:00,32.7,13.3,30.02,West,266,3.0,9.0,44,0.00,,,0.00,meteohub,2013-04-03 06:38:00,
2013-04-03 02:43:00,32.7,13.6,30.02,West,274,5.0,9.0,45,0.00,,,0.00,meteohub,2013-04-03 06:43:00,
2013-04-03 02:48:00,32.7,13.6,30.02,WNW,288,6.0,9.0,45,0.00,,,0.00,meteohub,2013-04-03 06:48:00,
2013-04-03 02:53:00,32.7,13.6,30.02,West,277,4.0,9.0,45,0.00,,,0.00,meteohub,2013-04-03 06:53:00,
2013-04-03 02:58:00,32.7,14.2,30.01,WSW,243,4.0,10.0,46,0.00,,,0.00,meteohub,2013-04-03 06:58:00,
2013-04-03 03:03:00,32.7,14.2,30.01,WNW,289,6.0,11.0,46,0.00,,,0.00,meteohub,2013-04-03 07:03:00,
2013-04-03 03:08:00,32.7,14.7,30.01,WNW,287,4.0,11.0,47,0.00,,,0.00,meteohub,2013-04-03 07:08:00,
2013-04-03 03:13:00,32.5,14.5,30.01,WNW,295,4.0,11.0,47,0.00,,,0.00,meteohub,2013-04-03 07:13:00,
2013-04-03 03:18:00,32.5,14.5,30.02,West,278,4.0,10.0,47,0.00,,,0.00,meteohub,2013-04-03 07:18:00,
2013-04-03 03:23:00,32.4,14.4,30.02,WSW,257,1.0,10.0,47,0.00,,,0.00,meteohub,2013-04-03 07:23:00,
2013-04-03 03:28:00,32.4,14.9,30.02,WNW,297,5.0,10.0,48,0.00,,,0.00,meteohub,2013-04-03 07:28:00,
2013-04-03 03:33:00,32.4,14.9,30.02,WNW,292,5.0,8.0,48,0.00,,,0.00,meteohub,2013-04-03 07:33:00,
2013-04-03 03:38:00,32.4,14.9,30.02,West,276,4.0,9.0,48,0.00,,,0.00,meteohub,2013-04-03 07:38:00,
2013-04-03 03:43:00,32.4,14.9,30.02,WSW,248,3.0,9.0,48,0.00,,,0.00,meteohub,2013-04-03 07:43:00,
2013-04-03 03:48:00,32.2,15.1,30.02,WSW,257,2.0,9.0,49,0.00,,,0.00,meteohub,2013-04-03 07:48:00,
2013-04-03 03:53:00,32.0,15.4,30.02,SW,224,2.0,9.0,50,0.00,,,0.00,meteohub,2013-04-03 07:53:00,
2013-04-03 03:58:00,31.8,15.3,30.02,WSW,242,2.0,8.0,50,0.00,,,0.00,meteohub,2013-04-03 07:58:00,
2013-04-03 04:03:00,31.6,15.1,30.02,West,267,0.0,6.0,50,0.00,,,0.00,meteohub,2013-04-03 08:03:00,
2013-04-03 04:09:00,31.6,15.1,30.02,West,274,3.0,6.0,50,0.00,,,0.00,meteohub,2013-04-03 08:09:00,
2013-04-03 04:14:00,31.5,15.8,30.02,WSW,248,2.0,5.0,52,0.00,,,0.00,meteohub,2013-04-03 08:14:00,
2013-04-03 04:18:00,31.6,15.1,30.02,SW,226,2.0,5.0,50,0.00,,,0.00,meteohub,2013-04-03 08:18:00,
2013-04-03 04:23:00,31.3,14.7,30.02,West,267,1.0,5.0,50,0.00,,,0.00,meteohub,2013-04-03 08:23:00,
2013-04-03 04:29:00,30.9,14.5,30.02,WSW,256,2.0,6.0,50,0.00,,,0.00,meteohub,2013-04-03 08:29:00,
2013-04-03 04:34:00,30.7,14.4,30.02,WSW,250,3.0,6.0,50,0.00,,,0.00,meteohub,2013-04-03 08:34:00,
2013-04-03 04:39:00,30.9,14.5,30.03,WSW,248,2.0,6.0,50,0.00,,,0.00,meteohub,2013-04-03 08:39:00,
2013-04-03 04:44:00,30.9,14.9,30.03,West,271,2.0,7.0,51,0.00,,,0.00,meteohub,2013-04-03 08:44:00,
2013-04-03 04:49:00,30.7,14.7,30.03,West,270,1.0,8.0,51,0.00,,,0.00,meteohub,2013-04-03 08:49:00,
2013-04-03 04:54:00,30.7,14.7,30.03,WSW,248,4.0,8.0,51,0.00,,,0.00,meteohub,2013-04-03 08:54:00,
2013-04-03 04:59:00,30.7,14.7,30.03,WSW,246,4.0,8.0,51,0.00,,,0.00,meteohub,2013-04-03 08:59:00,
2013-04-03 05:04:00,30.7,14.7,30.03,West,263,2.0,11.0,51,0.00,,,0.00,meteohub,2013-04-03 09:04:00,
2013-04-03 05:09:00,30.9,15.4,30.03,WNW,288,3.0,11.0,52,0.00,,,0.00,meteohub,2013-04-03 09:09:00,
2013-04-03 05:14:00,30.9,15.4,30.03,West,277,6.0,8.0,52,0.00,,,0.00,meteohub,2013-04-03 09:14:00,
2013-04-03 05:19:00,30.9,15.4,30.03,WNW,282,2.0,8.0,52,0.00,,,0.00,meteohub,2013-04-03 09:19:00,
2013-04-03 05:24:00,30.9,15.4,30.03,West,264,3.0,8.0,52,0.00,,,0.00,meteohub,2013-04-03 09:24:00,
2013-04-03 05:29:00,30.9,15.4,30.04,WSW,257,3.0,8.0,52,0.00,,,0.00,meteohub,2013-04-03 09:29:00,
2013-04-03 05:34:00,30.7,15.3,30.04,WSW,245,1.0,8.0,52,0.00,,,0.00,meteohub,2013-04-03 09:34:00,
2013-04-03 05:39:00,31.3,16.2,30.04,SW,235,0.0,6.0,53,0.00,,,0.00,meteohub,2013-04-03 09:39:00,
2013-04-03 05:44:00,31.3,16.2,30.05,WSW,257,3.0,4.0,53,0.00,,,0.00,meteohub,2013-04-03 09:44:00,
2013-04-03 05:49:00,30.7,15.3,30.05,SW,232,0.0,4.0,52,0.00,,,0.00,meteohub,2013-04-03 09:49:00,
2013-04-03 05:54:00,30.4,15.8,30.05,SW,232,2.0,3.0,54,0.00,,,0.00,meteohub,2013-04-03 09:54:00,
2013-04-03 05:59:00,30.2,15.6,30.05,SW,232,3.0,4.0,54,0.00,,,0.00,meteohub,2013-04-03 09:59:00,
2013-04-03 06:04:00,30.0,15.8,30.05,SW,224,4.0,6.0,55,0.00,,,0.00,meteohub,2013-04-03 10:04:00,
2013-04-03 06:09:00,30.0,15.4,30.05,SW,219,3.0,7.0,54,0.00,,,0.00,meteohub,2013-04-03 10:09:00,
2013-04-03 06:14:00,29.8,14.7,30.05,WSW,246,3.0,8.0,53,0.00,,,0.00,meteohub,2013-04-03 10:14:00,
2013-04-03 06:19:00,29.8,14.7,30.06,WSW,253,2.0,8.0,53,0.00,,,0.00,meteohub,2013-04-03 10:19:00,
2013-04-03 06:24:00,29.7,15.1,30.06,WSW,257,1.0,8.0,54,0.00,,,0.00,meteohub,2013-04-03 10:24:00,
2013-04-03 06:29:00,29.7,15.1,30.06,WSW,245,2.0,5.0,54,0.00,,,0.00,meteohub,2013-04-03 10:29:00,
2013-04-03 06:34:00,29.5,14.9,30.06,WSW,253,2.0,4.0,54,0.00,,,0.00,meteohub,2013-04-03 10:34:00,
2013-04-03 06:39:00,29.5,15.3,30.06,WSW,242,3.0,4.0,55,0.00,,,0.00,meteohub,2013-04-03 10:39:00,
2013-04-03 06:44:00,29.5,15.3,30.06,West,264,2.0,4.0,55,0.00,,,0.00,meteohub,2013-04-03 10:44:00,
2013-04-03 06:49:00,29.7,15.4,30.06,SW,233,4.0,5.0,55,0.00,,,0.00,meteohub,2013-04-03 10:49:00,
2013-04-03 06:54:00,29.8,15.6,30.06,WNW,285,2.0,6.0,55,0.00,,,0.00,meteohub,2013-04-03 10:54:00,
2013-04-03 06:59:00,30.2,15.6,30.07,West,281,2.0,6.0,54,0.00,,,0.00,meteohub,2013-04-03 10:59:00,
2013-04-03 07:04:00,30.4,15.8,30.07,WNW,282,1.0,7.0,54,0.00,,,0.00,meteohub,2013-04-03 11:04:00,
2013-04-03 07:09:00,30.6,15.4,30.07,WSW,250,8.0,8.0,53,0.00,,,0.00,meteohub,2013-04-03 11:09:00,
2013-04-03 07:14:00,30.9,15.8,30.08,WNW,295,7.0,11.0,53,0.00,,,0.00,meteohub,2013-04-03 11:14:00,
2013-04-03 07:19:00,30.9,15.8,30.08,WNW,290,6.0,11.0,53,0.00,,,0.00,meteohub,2013-04-03 11:19:00,
2013-04-03 07:24:00,31.3,16.2,30.08,WNW,287,3.0,11.0,53,0.00,,,0.00,meteohub,2013-04-03 11:24:00,
2013-04-03 07:29:00,31.5,16.3,30.08,West,271,5.0,11.0,53,0.00,,,0.00,meteohub,2013-04-03 11:29:00,
2013-04-03 07:34:00,31.6,16.5,30.08,WSW,249,7.0,11.0,53,0.00,,,0.00,meteohub,2013-04-03 11:34:00,
2013-04-03 07:39:00,31.8,16.7,30.08,WNW,290,8.0,10.0,53,0.00,,,0.00,meteohub,2013-04-03 11:39:00,
2013-04-03 07:44:00,32.2,16.5,30.08,WSW,238,4.0,13.0,52,0.00,,,0.00,meteohub,2013-04-03 11:44:00,
2013-04-03 07:49:00,32.4,16.7,30.08,WSW,245,8.0,13.0,52,0.00,,,0.00,meteohub,2013-04-03 11:49:00,
2013-04-03 07:54:00,32.7,16.5,30.08,West,272,10.0,13.0,51,0.00,,,0.00,meteohub,2013-04-03 11:54:00,
2013-04-03 07:59:00,32.7,16.5,30.08,West,262,5.0,13.0,51,0.00,,,0.00,meteohub,2013-04-03 11:59:00,
2013-04-03 08:04:00,32.9,16.7,30.08,WNW,285,7.0,16.0,51,0.00,,,0.00,meteohub,2013-04-03 12:04:00,
2013-04-03 08:09:00,33.1,16.9,30.08,WSW,242,4.0,16.0,51,0.00,,,0.00,meteohub,2013-04-03 12:09:00,
2013-04-03 08:14:00,33.3,17.1,30.08,WNW,284,10.0,16.0,51,0.00,,,0.00,meteohub,2013-04-03 12:14:00,
2013-04-03 08:19:00,33.3,17.1,30.08,WSW,246,8.0,14.0,51,0.00,,,0.00,meteohub,2013-04-03 12:19:00,
2013-04-03 08:24:00,33.6,17.4,30.08,West,271,5.0,18.0,51,0.00,,,0.00,meteohub,2013-04-03 12:24:00,
2013-04-03 08:29:00,33.6,16.9,30.08,SW,224,3.0,18.0,50,0.00,,,0.00,meteohub,2013-04-03 12:29:00,
2013-04-03 08:34:00,33.8,17.1,30.08,West,266,5.0,18.0,50,0.00,,,0.00,meteohub,2013-04-03 12:34:00,
2013-04-03 08:39:00,34.2,17.4,30.08,WNW,288,5.0,19.0,50,0.00,,,0.00,meteohub,2013-04-03 12:39:00,
2013-04-03 08:44:00,34.3,17.2,30.08,WNW,290,9.0,19.0,49,0.00,,,0.00,meteohub,2013-04-03 12:44:00,
2013-04-03 08:49:00,34.3,17.2,30.08,WNW,291,11.0,19.0,49,0.00,,,0.00,meteohub,2013-04-03 12:49:00,
2013-04-03 08:54:00,34.5,16.9,30.08,WNW,302,12.0,17.0,48,0.00,,,0.00,meteohub,2013-04-03 12:54:00,
2013-04-03 08:59:00,34.7,16.5,30.07,NW,318,4.0,20.0,47,0.00,,,0.00,meteohub,2013-04-03 12:59:00,
2013-04-03 09:05:00,34.9,17.2,30.07,WNW,295,20.0,20.0,48,0.00,,,0.00,meteohub,2013-04-03 13:05:00,
2013-04-03 09:10:00,34.9,15.3,30.07,WNW,300,9.0,22.0,44,0.00,,,0.00,meteohub,2013-04-03 13:10:00,
2013-04-03 09:15:00,34.5,15.4,30.07,WNW,288,12.0,28.0,45,0.00,,,0.00,meteohub,2013-04-03 13:15:00,
2013-04-03 09:20:00,34.9,15.6,30.07,WNW,294,12.0,28.0,45,0.00,,,0.00,meteohub,2013-04-03 13:20:00,
2013-04-03 09:25:00,34.9,15.6,30.07,NW,305,21.0,28.0,45,0.00,,,0.00,meteohub,2013-04-03 13:25:00,
2013-04-03 09:30:00,34.9,15.3,30.06,NW,322,14.0,27.0,44,0.00,,,0.00,meteohub,2013-04-03 13:30:00,
2013-04-03 09:35:00,35.2,16.0,30.06,WNW,287,9.0,27.0,45,0.00,,,0.00,meteohub,2013-04-03 13:35:00,
2013-04-03 09:40:00,35.8,15.4,30.06,NW,304,12.0,24.0,43,0.00,,,0.00,meteohub,2013-04-03 13:40:00,
2013-04-03 09:45:00,36.0,15.6,30.06,WNW,297,10.0,24.0,43,0.00,,,0.00,meteohub,2013-04-03 13:45:00,
2013-04-03 09:50:00,36.0,15.6,30.06,NW,322,7.0,19.0,43,0.00,,,0.00,meteohub,2013-04-03 13:50:00,
2013-04-03 09:55:00,36.5,16.7,30.06,West,277,15.0,19.0,44,0.00,,,0.00,meteohub,2013-04-03 13:55:00,
2013-04-03 10:00:00,36.5,16.2,30.06,West,262,8.0,19.0,43,0.00,,,0.00,meteohub,2013-04-03 14:00:00,
2013-04-03 10:05:00,36.3,16.0,30.06,WNW,297,12.0,26.0,43,0.00,,,0.00,meteohub,2013-04-03 14:05:00,
2013-04-03 10:10:00,36.1,15.8,30.06,WNW,291,7.0,26.0,43,0.00,,,0.00,meteohub,2013-04-03 14:10:00,
2013-04-03 10:15:00,36.7,15.8,30.06,West,260,7.0,26.0,42,0.00,,,0.00,meteohub,2013-04-03 14:15:00,
2013-04-03 10:20:00,37.0,13.8,30.06,NW,316,20.0,25.0,38,0.00,,,0.00,meteohub,2013-04-03 14:20:00,
2013-04-03 10:25:00,37.0,13.8,30.06,WNW,298,15.0,22.0,38,0.00,,,0.00,meteohub,2013-04-03 14:25:00,
2013-04-03 10:30:00,36.7,14.5,30.06,WNW,285,12.0,26.0,40,0.00,,,0.00,meteohub,2013-04-03 14:30:00,
2013-04-03 10:35:00,37.2,14.5,30.06,WNW,302,17.0,32.0,39,0.00,,,0.00,meteohub,2013-04-03 14:35:00,
2013-04-03 10:40:00,37.6,14.9,30.05,NW,308,13.0,32.0,39,0.00,,,0.00,meteohub,2013-04-03 14:40:00,
2013-04-03 10:45:00,37.8,15.1,30.06,WNW,297,10.0,32.0,39,0.00,,,0.00,meteohub,2013-04-03 14:45:00,
2013-04-03 10:50:00,37.6,14.2,30.05,WNW,299,17.0,22.0,38,0.00,,,0.00,meteohub,2013-04-03 14:50:00,
2013-04-03 10:55:00,37.6,14.9,30.05,WNW,288,14.0,22.0,39,0.00,,,0.00,meteohub,2013-04-03 14:55:00,
2013-04-03 11:00:00,37.6,15.4,30.05,WNW,299,22.0,22.0,40,0.00,,,0.00,meteohub,2013-04-03 15:00:00,
2013-04-03 11:05:00,37.8,16.2,30.05,West,276,11.0,23.0,41,0.00,,,0.00,meteohub,2013-04-03 15:05:00,
2013-04-03 11:10:00,38.1,16.0,30.05,WNW,285,11.0,23.0,40,0.00,,,0.00,meteohub,2013-04-03 15:10:00,
2013-04-03 11:15:00,38.5,15.6,30.05,WNW,288,15.0,23.0,39,0.00,,,0.00,meteohub,2013-04-03 15:15:00,
2013-04-03 11:20:00,38.5,15.6,30.05,West,271,13.0,25.0,39,0.00,,,0.00,meteohub,2013-04-03 15:20:00,
2013-04-03 11:25:00,38.5,15.6,30.05,West,276,24.0,25.0,39,0.00,,,0.00,meteohub,2013-04-03 15:25:00,
2013-04-03 11:30:00,38.5,15.6,30.05,NW,308,17.0,28.0,39,0.00,,,0.00,meteohub,2013-04-03 15:30:00,
2013-04-03 11:35:00,38.7,15.8,30.04,WNW,294,19.0,28.0,39,0.00,,,0.00,meteohub,2013-04-03 15:35:00,
2013-04-03 11:40:00,39.2,15.1,30.05,WNW,300,12.0,28.0,37,0.00,,,0.00,meteohub,2013-04-03 15:40:00,
2013-04-03 11:45:00,39.6,15.4,30.05,NW,308,12.0,24.0,37,0.00,,,0.00,meteohub,2013-04-03 15:45:00,
2013-04-03 11:50:00,39.0,14.4,30.05,WNW,283,8.0,24.0,36,0.00,,,0.00,meteohub,2013-04-03 15:50:00,
2013-04-03 11:55:00,39.0,14.4,30.05,NW,316,11.0,24.0,36,0.00,,,0.00,meteohub,2013-04-03 15:55:00,
2013-04-03 12:00:00,39.0,14.4,30.04,WNW,283,6.0,24.0,36,0.00,,,0.00,meteohub,2013-04-03 16:00:00,
2013-04-03 12:05:00,39.6,14.2,30.04,WNW,299,17.0,24.0,35,0.00,,,0.00,meteohub,2013-04-03 16:05:00,
2013-04-03 12:11:00,39.4,14.0,30.04,NW,312,20.0,28.0,35,0.00,,,0.00,meteohub,2013-04-03 16:11:00,
2013-04-03 12:16:00,39.6,13.5,30.04,NW,311,9.0,28.0,34,0.00,,,0.00,meteohub,2013-04-03 16:16:00,
2013-04-03 12:21:00,39.7,13.6,30.04,NW,310,13.0,28.0,34,0.00,,,0.00,meteohub,2013-04-03 16:21:00,
2013-04-03 12:26:00,39.9,13.8,30.04,NW,308,13.0,28.0,34,0.00,,,0.00,meteohub,2013-04-03 16:26:00,
2013-04-03 12:31:00,40.1,14.0,30.04,NW,314,10.0,28.0,34,0.00,,,0.00,meteohub,2013-04-03 16:31:00,
2013-04-03 12:36:00,40.3,14.7,30.04,WNW,285,11.0,28.0,35,0.00,,,0.00,meteohub,2013-04-03 16:36:00,
2013-04-03 12:41:00,40.5,15.6,30.04,WNW,288,13.0,22.0,36,0.00,,,0.00,meteohub,2013-04-03 16:41:00,
2013-04-03 12:46:00,40.6,14.5,30.04,NW,319,9.0,21.0,34,0.00,,,0.00,meteohub,2013-04-03 16:46:00,
2013-04-03 12:51:00,41.2,14.9,30.03,WNW,295,7.0,21.0,34,0.00,,,0.00,meteohub,2013-04-03 16:51:00,
2013-04-03 12:56:00,41.5,15.3,30.03,WNW,302,10.0,21.0,34,0.00,,,0.00,meteohub,2013-04-03 16:56:00,
2013-04-03 13:01:00,42.1,15.8,30.03,WSW,238,7.0,21.0,34,0.00,,,0.00,meteohub,2013-04-03 17:01:00,
2013-04-03 13:07:00,41.5,14.5,30.03,WNW,288,17.0,20.0,33,0.00,,,0.00,meteohub,2013-04-03 17:07:00,
2013-04-03 13:12:00,41.4,14.4,30.03,NW,320,20.0,26.0,33,0.00,,,0.00,meteohub,2013-04-03 17:12:00,
2013-04-03 13:17:00,41.7,14.7,30.03,NW,308,13.0,26.0,33,0.00,,,0.00,meteohub,2013-04-03 17:17:00,
2013-04-03 13:22:00,41.5,13.8,30.03,NW,312,13.0,26.0,32,0.00,,,0.00,meteohub,2013-04-03 17:22:00,
2013-04-03 13:27:00,41.4,14.4,30.04,NW,322,9.0,23.0,33,0.00,,,0.00,meteohub,2013-04-03 17:27:00,
2013-04-03 13:32:00,41.5,13.8,30.04,NW,308,19.0,23.0,32,0.00,,,0.00,meteohub,2013-04-03 17:32:00,
2013-04-03 13:37:00,41.5,13.8,30.03,NW,308,8.0,23.0,32,0.00,,,0.00,meteohub,2013-04-03 17:37:00,
2013-04-03 13:42:00,41.5,12.4,30.03,NW,321,12.0,22.0,30,0.00,,,0.00,meteohub,2013-04-03 17:42:00,
2013-04-03 13:47:00,42.1,13.6,30.02,WNW,300,5.0,26.0,31,0.00,,,0.00,meteohub,2013-04-03 17:47:00,
2013-04-03 13:52:00,42.3,13.8,30.03,WNW,298,9.0,26.0,31,0.00,,,0.00,meteohub,2013-04-03 17:52:00,
2013-04-03 13:57:00,42.6,14.9,30.02,WSW,251,11.0,26.0,32,0.00,,,0.00,meteohub,2013-04-03 17:57:00,
2013-04-03 14:02:00,42.8,16.3,30.03,West,280,12.0,24.0,34,0.00,,,0.00,meteohub,2013-04-03 18:02:00,
2013-04-03 14:07:00,43.3,16.9,30.03,NW,309,16.0,24.0,34,0.00,,,0.00,meteohub,2013-04-03 18:07:00,
2013-04-03 14:12:00,43.2,15.3,30.03,NW,304,11.0,22.0,32,0.00,,,0.00,meteohub,2013-04-03 18:12:00,
2013-04-03 14:17:00,43.0,16.5,30.02,WNW,289,12.0,23.0,34,0.00,,,0.00,meteohub,2013-04-03 18:17:00,
2013-04-03 14:22:00,43.5,14.9,30.02,WNW,287,8.0,23.0,31,0.00,,,0.00,meteohub,2013-04-03 18:22:00,
2013-04-03 14:28:00,43.2,16.0,30.02,WNW,288,9.0,23.0,33,0.00,,,0.00,meteohub,2013-04-03 18:28:00,
2013-04-03 14:33:00,43.5,14.2,30.02,West,274,7.0,18.0,30,0.00,,,0.00,meteohub,2013-04-03 18:33:00,
2013-04-03 14:38:00,43.5,15.6,30.02,WSW,256,11.0,27.0,32,0.00,,,0.00,meteohub,2013-04-03 18:38:00,
2013-04-03 14:43:00,43.3,15.4,30.01,WSW,249,17.0,27.0,32,0.00,,,0.00,meteohub,2013-04-03 18:43:00,
2013-04-03 14:48:00,43.5,14.2,30.01,NW,321,8.0,32.0,30,0.00,,,0.00,meteohub,2013-04-03 18:48:00,
2013-04-03 14:53:00,43.3,15.4,30.01,WNW,299,9.0,32.0,32,0.00,,,0.00,meteohub,2013-04-03 18:53:00,
2013-04-03 14:58:00,43.9,16.0,30.01,WNW,284,9.0,32.0,32,0.00,,,0.00,meteohub,2013-04-03 18:58:00,
2013-04-03 15:04:00,44.1,16.2,30.01,NW,313,11.0,30.0,32,0.00,,,0.00,meteohub,2013-04-03 19:04:00,
2013-04-03 15:09:00,44.4,16.3,30.01,West,274,10.0,19.0,32,0.00,,,0.00,meteohub,2013-04-03 19:09:00,
2013-04-03 15:14:00,43.9,15.3,30.00,West,274,10.0,22.0,31,0.00,,,0.00,meteohub,2013-04-03 19:14:00,
2013-04-03 15:19:00,43.9,15.3,30.00,WNW,284,19.0,22.0,31,0.00,,,0.00,meteohub,2013-04-03 19:19:00,
2013-04-03 15:24:00,44.1,13.8,30.01,WNW,295,13.0,24.0,29,0.00,,,0.00,meteohub,2013-04-03 19:24:00,
2013-04-03 15:29:00,44.1,14.5,30.01,WNW,295,14.0,24.0,30,0.00,,,0.00,meteohub,2013-04-03 19:29:00,
2013-04-03 15:34:00,44.2,14.7,30.01,WNW,288,8.0,24.0,30,0.00,,,0.00,meteohub,2013-04-03 19:34:00,
2013-04-03 15:39:00,44.1,13.8,30.01,WNW,294,12.0,21.0,29,0.00,,,0.00,meteohub,2013-04-03 19:39:00,
2013-04-03 15:44:00,44.1,13.8,30.00,North,355,12.0,23.0,29,0.00,,,0.00,meteohub,2013-04-03 19:44:00,
2013-04-03 15:49:00,44.2,13.1,30.01,WNW,302,12.0,23.0,28,0.00,,,0.00,meteohub,2013-04-03 19:49:00,
2013-04-03 15:55:00,44.1,13.8,30.01,WNW,297,19.0,24.0,29,0.00,,,0.00,meteohub,2013-04-03 19:55:00,
2013-04-03 16:00:00,44.4,14.9,30.00,West,264,2.0,24.0,30,0.00,,,0.00,meteohub,2013-04-03 20:00:00,
2013-04-03 16:05:00,44.8,15.3,30.00,WSW,250,5.0,24.0,30,0.00,,,0.00,meteohub,2013-04-03 20:05:00,
2013-04-03 16:10:00,45.1,15.6,30.01,NNW,328,10.0,24.0,30,0.00,,,0.00,meteohub,2013-04-03 20:10:00,
2013-04-03 16:15:00,44.4,13.3,30.00,West,278,11.0,27.0,28,0.00,,,0.00,meteohub,2013-04-03 20:15:00,
2013-04-03 16:20:00,44.2,13.1,30.00,NW,312,11.0,31.0,28,0.00,,,0.00,meteohub,2013-04-03 20:20:00,
2013-04-03 16:25:00,44.4,13.3,30.00,West,271,14.0,31.0,28,0.00,,,0.00,meteohub,2013-04-03 20:25:00,
2013-04-03 16:30:00,44.2,14.0,30.00,WNW,285,8.0,31.0,29,0.00,,,0.00,meteohub,2013-04-03 20:30:00,
2013-04-03 16:35:00,44.8,14.5,30.01,NNW,336,7.0,25.0,29,0.00,,,0.00,meteohub,2013-04-03 20:35:00,
2013-04-03 16:40:00,45.1,14.0,30.00,NW,304,11.0,25.0,28,0.00,,,0.00,meteohub,2013-04-03 20:40:00,
2013-04-03 16:45:00,45.1,14.0,30.01,WNW,300,14.0,24.0,28,0.00,,,0.00,meteohub,2013-04-03 20:45:00,
2013-04-03 16:50:00,44.8,12.7,30.01,WNW,302,14.0,28.0,27,0.00,,,0.00,meteohub,2013-04-03 20:50:00,
2013-04-03 16:56:00,44.4,13.3,30.01,WNW,284,19.0,28.0,28,0.00,,,0.00,meteohub,2013-04-03 20:56:00,
2013-04-03 17:01:00,44.2,13.1,30.01,WNW,298,6.0,28.0,28,0.00,,,0.00,meteohub,2013-04-03 21:01:00,
2013-04-03 17:06:00,44.8,13.6,30.01,WNW,302,17.0,27.0,28,0.00,,,0.00,meteohub,2013-04-03 21:06:00,
2013-04-03 17:11:00,44.8,12.7,30.01,NW,304,13.0,27.0,27,0.00,,,0.00,meteohub,2013-04-03 21:11:00,
2013-04-03 17:17:00,44.8,13.6,30.01,NW,321,12.0,24.0,28,0.00,,,0.00,meteohub,2013-04-03 21:17:00,
2013-04-03 17:22:00,44.6,13.5,30.02,NW,305,10.0,24.0,28,0.00,,,0.00,meteohub,2013-04-03 21:22:00,
2013-04-03 17:27:00,44.4,13.3,30.02,WNW,298,10.0,24.0,28,0.00,,,0.00,meteohub,2013-04-03 21:27:00,
2013-04-03 17:32:00,44.4,13.3,30.02,WNW,302,14.0,24.0,28,0.00,,,0.00,meteohub,2013-04-03 21:32:00,
2013-04-03 17:37:00,44.1,13.1,30.02,NW,311,12.0,27.0,28,0.00,,,0.00,meteohub,2013-04-03 21:37:00,
2013-04-03 17:42:00,44.1,13.1,30.03,NNW,335,17.0,27.0,28,0.00,,,0.00,meteohub,2013-04-03 21:42:00,
2013-04-03 17:47:00,44.1,13.1,30.03,NW,315,13.0,27.0,28,0.00,,,0.00,meteohub,2013-04-03 21:47:00,
2013-04-03 17:52:00,44.2,14.0,30.04,WNW,294,11.0,30.0,29,0.00,,,0.00,meteohub,2013-04-03 21:52:00,
2013-04-03 17:57:00,44.4,13.3,30.03,WNW,293,12.0,30.0,28,0.00,,,0.00,meteohub,2013-04-03 21:57:00,
2013-04-03 18:02:00,44.2,13.1,30.04,WNW,284,26.0,26.0,28,0.00,,,0.00,meteohub,2013-04-03 22:02:00,
2013-04-03 18:07:00,43.9,12.9,30.04,WNW,290,11.0,26.0,28,0.00,,,0.00,meteohub,2013-04-03 22:07:00,
2013-04-03 18:12:00,43.9,12.9,30.04,WNW,294,16.0,26.0,28,0.00,,,0.00,meteohub,2013-04-03 22:12:00,
2013-04-03 18:17:00,43.5,13.3,30.04,WNW,297,16.0,26.0,29,0.00,,,0.00,meteohub,2013-04-03 22:17:00,
2013-04-03 18:22:00,43.3,13.3,30.04,West,281,9.0,26.0,29,0.00,,,0.00,meteohub,2013-04-03 22:22:00,
2013-04-03 18:27:00,43.3,14.0,30.04,WNW,300,17.0,26.0,30,0.00,,,0.00,meteohub,2013-04-03 22:27:00,
2013-04-03 18:32:00,43.3,13.3,30.05,NW,304,13.0,26.0,29,0.00,,,0.00,meteohub,2013-04-03 22:32:00,
2013-04-03 18:37:00,43.2,13.8,30.05,WNW,300,11.0,24.0,30,0.00,,,0.00,meteohub,2013-04-03 22:37:00,
2013-04-03 18:42:00,43.2,14.5,30.06,WNW,300,6.0,23.0,31,0.00,,,0.00,meteohub,2013-04-03 22:42:00,
2013-04-03 18:47:00,43.0,13.6,30.06,NW,309,15.0,23.0,30,0.00,,,0.00,meteohub,2013-04-03 22:47:00,
2013-04-03 18:52:00,42.8,14.2,30.06,WNW,299,11.0,24.0,31,0.00,,,0.00,meteohub,2013-04-03 22:52:00,
2013-04-03 18:57:00,42.6,14.0,30.06,NW,304,5.0,24.0,31,0.00,,,0.00,meteohub,2013-04-03 22:57:00,
2013-04-03 19:02:00,42.3,13.8,30.07,WNW,293,9.0,24.0,31,0.00,,,0.00,meteohub,2013-04-03 23:02:00,
2013-04-03 19:07:00,42.1,14.4,30.07,NW,322,12.0,20.0,32,0.00,,,0.00,meteohub,2013-04-03 23:07:00,
2013-04-03 19:12:00,41.7,14.0,30.07,NW,305,10.0,19.0,32,0.00,,,0.00,meteohub,2013-04-03 23:12:00,
2013-04-03 19:17:00,41.5,13.8,30.08,NW,324,8.0,19.0,32,0.00,,,0.00,meteohub,2013-04-03 23:17:00,
2013-04-03 19:22:00,41.4,13.6,30.08,NW,308,7.0,21.0,32,0.00,,,0.00,meteohub,2013-04-03 23:22:00,
2013-04-03 19:27:00,41.2,14.2,30.09,WNW,286,0.0,21.0,33,0.00,,,0.00,meteohub,2013-04-03 23:27:00,
2013-04-03 19:32:00,41.0,14.0,30.09,WNW,290,13.0,18.0,33,0.00,,,0.00,meteohub,2013-04-03 23:32:00,
2013-04-03 19:37:00,40.8,14.0,30.09,WNW,300,9.0,20.0,33,0.00,,,0.00,meteohub,2013-04-03 23:37:00,
2013-04-03 19:42:00,40.6,14.5,30.09,NW,309,8.0,20.0,34,0.00,,,0.00,meteohub,2013-04-03 23:42:00,
2013-04-03 19:47:00,40.5,14.4,30.10,NW,308,6.0,17.0,34,0.00,,,0.00,meteohub,2013-04-03 23:47:00,
2013-04-03 19:53:00,40.3,13.5,30.10,NNW,330,19.0,19.0,33,0.00,,,0.00,meteohub,2013-04-03 23:53:00,
2013-04-03 19:58:00,40.1,12.6,30.11,NNW,335,9.0,23.0,32,0.00,,,0.00,meteohub,2013-04-03 23:58:00,
2013-04-03 20:03:00,39.9,12.4,30.11,NW,321,13.0,23.0,32,0.00,,,0.00,meteohub,2013-04-04 00:03:00,
2013-04-03 20:08:00,39.6,12.2,30.12,WNW,302,9.0,23.0,32,0.00,,,0.00,meteohub,2013-04-04 00:08:00,
2013-04-03 20:13:00,39.4,12.7,30.12,NW,308,10.0,23.0,33,0.00,,,0.00,meteohub,2013-04-04 00:13:00,
2013-04-03 20:18:00,39.2,12.6,30.13,NW,312,9.0,20.0,33,0.00,,,0.00,meteohub,2013-04-04 00:18:00,
2013-04-03 20:23:00,39.0,13.1,30.13,NW,309,10.0,17.0,34,0.00,,,0.00,meteohub,2013-04-04 00:23:00,
2013-04-03 20:28:00,38.8,12.9,30.14,NW,308,9.0,17.0,34,0.00,,,0.00,meteohub,2013-04-04 00:28:00,
2013-04-03 20:33:00,38.7,13.3,30.14,WNW,295,3.0,16.0,35,0.00,,,0.00,meteohub,2013-04-04 00:33:00,
2013-04-03 20:38:00,38.7,13.3,30.15,WNW,300,6.0,15.0,35,0.00,,,0.00,meteohub,2013-04-04 00:38:00,
2013-04-03 20:43:00,38.5,13.3,30.15,NW,311,2.0,15.0,35,0.00,,,0.00,meteohub,2013-04-04 00:43:00,
2013-04-03 20:48:00,38.3,13.6,30.15,NNW,330,6.0,12.0,36,0.00,,,0.00,meteohub,2013-04-04 00:48:00,
2013-04-03 20:53:00,38.1,13.5,30.16,NW,304,7.0,12.0,36,0.00,,,0.00,meteohub,2013-04-04 00:53:00,
2013-04-03 20:58:00,38.1,14.2,30.16,NW,325,10.0,12.0,37,0.00,,,0.00,meteohub,2013-04-04 00:58:00,
2013-04-03 21:03:00,37.9,14.5,30.16,WNW,296,8.0,16.0,38,0.00,,,0.00,meteohub,2013-04-04 01:03:00,
2013-04-03 21:08:00,37.9,14.5,30.16,WNW,284,10.0,17.0,38,0.00,,,0.00,meteohub,2013-04-04 01:08:00,
2013-04-03 21:13:00,37.8,15.1,30.17,West,271,6.0,17.0,39,0.00,,,0.00,meteohub,2013-04-04 01:13:00,
2013-04-03 21:18:00,37.8,15.1,30.17,NW,316,9.0,17.0,39,0.00,,,0.00,meteohub,2013-04-04 01:18:00,
2013-04-03 21:23:00,37.6,14.9,30.17,NW,310,8.0,16.0,39,0.00,,,0.00,meteohub,2013-04-04 01:23:00,
2013-04-03 21:28:00,37.6,15.4,30.17,WNW,294,4.0,13.0,40,0.00,,,0.00,meteohub,2013-04-04 01:28:00,
2013-04-03 21:33:00,37.2,15.1,30.17,NNW,332,8.0,13.0,40,0.00,,,0.00,meteohub,2013-04-04 01:33:00,
2013-04-03 21:39:00,37.2,15.1,30.17,NW,316,7.0,13.0,40,0.00,,,0.00,meteohub,2013-04-04 01:39:00,
2013-04-03 21:44:00,37.2,15.1,30.18,NW,320,5.0,18.0,40,0.00,,,0.00,meteohub,2013-04-04 01:44:00,
2013-04-03 21:49:00,37.0,14.9,30.18,NW,316,8.0,19.0,40,0.00,,,0.00,meteohub,2013-04-04 01:49:00,
2013-04-03 21:54:00,36.9,14.7,30.19,WNW,288,6.0,19.0,40,0.00,,,0.00,meteohub,2013-04-04 01:54:00,
2013-04-03 21:59:00,36.7,14.5,30.19,WNW,295,11.0,19.0,40,0.00,,,0.00,meteohub,2013-04-04 01:59:00,
2013-04-03 22:04:00,36.7,14.5,30.19,NW,305,8.0,15.0,40,0.00,,,0.00,meteohub,2013-04-04 02:04:00,
2013-04-03 22:09:00,36.5,14.5,30.19,WNW,290,5.0,15.0,40,0.00,,,0.00,meteohub,2013-04-04 02:09:00,
2013-04-03 22:14:00,36.3,14.4,30.19,WNW,298,8.0,23.0,40,0.00,,,0.00,meteohub,2013-04-04 02:14:00,
2013-04-03 22:19:00,36.3,14.4,30.19,WNW,300,11.0,23.0,40,0.00,,,0.00,meteohub,2013-04-04 02:19:00,
2013-04-03 22:24:00,36.1,14.2,30.19,WNW,295,11.0,23.0,40,0.00,,,0.00,meteohub,2013-04-04 02:24:00,
2013-04-03 22:29:00,36.1,14.2,30.19,NW,310,7.0,21.0,40,0.00,,,0.00,meteohub,2013-04-04 02:29:00,
2013-04-03 22:34:00,35.8,14.9,30.20,NW,316,6.0,18.0,42,0.00,,,0.00,meteohub,2013-04-04 02:34:00,
2013-04-03 22:39:00,35.8,14.4,30.20,WNW,294,24.0,24.0,41,0.00,,,0.00,meteohub,2013-04-04 02:39:00,
2013-04-03 22:44:00,35.8,14.4,30.21,WNW,294,13.0,18.0,41,0.00,,,0.00,meteohub,2013-04-04 02:44:00,
2013-04-03 22:49:00,35.6,14.2,30.20,NW,308,12.0,28.0,41,0.00,,,0.00,meteohub,2013-04-04 02:49:00,
2013-04-03 22:54:00,35.4,14.0,30.20,WNW,295,6.0,28.0,41,0.00,,,0.00,meteohub,2013-04-04 02:54:00,
2013-04-03 22:59:00,35.2,13.8,30.20,NW,315,12.0,25.0,41,0.00,,,0.00,meteohub,2013-04-04 02:59:00,
2013-04-03 23:04:00,35.1,14.4,30.21,NW,307,6.0,22.0,42,0.00,,,0.00,meteohub,2013-04-04 03:04:00,
2013-04-03 23:10:00,35.1,13.6,30.20,NNW,328,9.0,20.0,41,0.00,,,0.00,meteohub,2013-04-04 03:10:00,
2013-04-03 23:15:00,34.9,13.6,30.21,WNW,288,8.0,19.0,41,0.00,,,0.00,meteohub,2013-04-04 03:15:00,
2013-04-03 23:20:00,34.9,13.6,30.21,WNW,287,16.0,24.0,41,0.00,,,0.00,meteohub,2013-04-04 03:20:00,
2013-04-03 23:25:00,34.7,14.0,30.22,NW,308,12.0,24.0,42,0.00,,,0.00,meteohub,2013-04-04 03:25:00,
2013-04-03 23:30:00,34.5,13.8,30.22,WNW,302,9.0,24.0,42,0.00,,,0.00,meteohub,2013-04-04 03:30:00,
2013-04-03 23:35:00,34.5,13.8,30.22,NW,311,10.0,21.0,42,0.00,,,0.00,meteohub,2013-04-04 03:35:00,
2013-04-03 23:40:00,34.3,13.6,30.22,WNW,290,8.0,21.0,42,0.00,,,0.00,meteohub,2013-04-04 03:40:00,
2013-04-03 23:45:00,34.3,14.2,30.22,WNW,295,15.0,20.0,43,0.00,,,0.00,meteohub,2013-04-04 03:45:00,
2013-04-03 23:50:00,34.2,14.0,30.22,NW,311,9.0,20.0,43,0.00,,,0.00,meteohub,2013-04-04 03:50:00,
2013-04-03 23:55:00,34.2,14.5,30.23,NW,316,12.0,20.0,44,0.00,,,0.00,meteohub,2013-04-04 03:55:00,